User: anonymous
Location: Unspecified
(0.0000°N, 0.0000°E)
Time: 09:28:41
(UTC+00:00)
Language:

Vanguard 2 Rocket - Orbit

View from above orbital plane
View from above orbital plane
View from above satellite
View from above satellite

Ground track
Ground track

The orbit data is extracted from the following two-line orbital elements,

1 00012U 59001B   14257.76383697  .00000438  00000-0  24452-3 0  9081
2 00012 032.9051 144.5857 1671133 185.8549 171.9916 11.43373154281682
Epoch (UTC): 14 September 2014 18:19:55
Eccentricity: 0.1671133
inclination: 32.9051°
perigee height: 554 km
apogee height: 3335 km
right ascension of ascending node: 144.5857°
argument of perigee: 185.8549°
revolutions per day: 11.43373154
mean anomaly at epoch: 171.9916°
orbit number at epoch: 28168

The dashed part of the orbit path shows where the satellite is in the earth's shadow,  

DLR